This demonstration page uses our WeatherBlox Daily Observations layout. Learn more.

Left ArrowRight Arrow

Hourly Observations for April 3, 2021

Temp ( °F °C ) Dew Point ( °F °C ) Humidity (%) Winds ( mph kmh ) Pressure ( in mb ) Visibility ( mi km ) Precip ( " mm )
12:15 am 00:15 Clear 54 12.3 33 0.8 46 46 S 13 20 30 1016 10 16.0934 0 0
12:35 am 00:35 Clear 53 11.8 34 1 48 48 SSW 10 17 30.01 1016 10 16.0934 0 0
12:55 am 00:55 Clear 52 11.3 34 1.1 50 50 SSW 12 19 30.01 1016 10 16.0934 0 0
1:15 am 01:15 Clear 52 11.1 34 1.1 50 50 SSW 10 17 30.01 1016 10 16.0934 0 0
1:35 am 01:35 Clear 52 11 34 1 50 50 SSW 12 19 30.01 1016 10 16.0934 0 0
1:55 am 01:55 Clear 52 11 34 1.1 51 51 SSW 9 15 30.03 1017 10 16.0934 0 0
2:15 am 02:15 Clear 51 10.4 34 1 52 52 SW 5 7 30.04 1017 10 16.0934 0 0
2:35 am 02:35 Clear 51 10.5 34 1.1 52 52 SSW 6 9 30.04 1017 10 16.0934 0 0
2:55 am 02:55 Clear 50 10 34 1 54 54 SSW 7 11 30.04 1017 10 16.0934 0 0
3:15 am 03:15 Clear 48 9.1 33 0.7 56 56 Calm 30.06 1018 10 16.0934 0 0
3:35 am 03:35 Clear 49 9.7 34 0.9 55 55 SSW 8 13 30.05 1017 10 16.0934 0 0
3:55 am 03:55 Clear 48 8.8 33 0.7 57 57 SSW 5 7 30.06 1018 10 16.0934 0 0
4:15 am 04:15 Clear 46 7.9 33 0.6 60 60 Calm 30.07 1018 10 16.0934 0 0
4:35 am 04:35 Clear 44 6.7 32 0.2 64 64 Calm 30.08 1019 10 16.0934 0 0
4:55 am 04:55 Clear 42 5.5 32 -0.2 67 67 Calm 30.1 1019 10 16.0934 0 0
5:15 am 05:15 Clear 41 5.2 32 -0.2 68 68 Calm 30.11 1020 10 16.0934 0 0
5:35 am 05:35 Clear 38 3.3 30 -0.9 74 74 Calm 30.12 1020 10 16.0934 0 0
5:55 am 05:55 Clear 35 1.9 30 -1.2 80 80 N 3 6 30.15 1021 10 16.0934 0 0
6:15 am 06:15 Clear 35 1.9 31 -0.7 83 83 Calm 30.15 1021 10 16.0934 0 0
6:35 am 06:35 Clear 35 1.9 31 -0.8 83 83 Calm 30.16 1021 10 16.0934 0 0
6:55 am 06:55 Clear 34 1.2 30 -1.2 84 84 NNW 3 6 30.16 1021 10 16.0934 0 0
7:15 am 07:15 Clear 33 0.3 28 -2 85 85 Calm 30.17 1022 10 16.0934 0 0
7:35 am 07:35 Sunny 34 1.2 30 -1.2 84 84 NNW 6 9 30.17 1022 10 16.0934 0 0
7:55 am 07:55 Sunny 39 3.7 32 0 77 77 NNW 7 11 30.16 1021 10 16.0934 0 0
8:15 am 08:15 Sunny 41 5.2 33 0.6 72 72 N 6 9 30.16 1021 10 16.0934 0 0
8:35 am 08:35 Sunny 44 6.8 35 1.6 70 70 NNW 5 7 30.14 1021 10 16.0934 0 0
8:55 am 08:55 Sunny 47 8.6 36 2.1 64 64 N 3 6 30.13 1020 10 16.0934 0 0
9:15 am 09:15 Sunny 51 10.4 36 2.2 57 57 NNE 5 7 30.12 1020 10 16.0934 0 0
9:35 am 09:35 Sunny 54 12.2 36 2.4 51 51 NE 5 7 30.1 1019 10 16.0934 0 0
9:55 am 09:55 Sunny 57 13.9 37 2.6 47 47 ENE 7 11 30.09 1019 10 16.0934 0 0
10:15 am 10:15 Sunny 61 16 35 1.8 39 39 ENE 8 13 30.08 1019 10 16.0934 0 0
10:35 am 10:35 Sunny 64 17.7 35 1.6 34 34 E 15 24 30.08 1018 10 16.0934 0 0
10:55 am 10:55 Sunny 66 19 33 0.8 30 30 E 14 22 30.07 1018 10 16.0934 0 0
11:15 am 11:15 Sunny 69 20.3 32 0.2 26 26 E 15 24 30.05 1018 10 16.0934 0 0
11:35 am 11:35 Sunny 71 21.4 30 -1 22 22 E 15 24 30.05 1017 10 16.0934 0 0
11:55 am 11:55 Sunny 72 22.1 29 -1.4 21 21 E 17 28 30.04 1017 10 16.0934 0 0
12:15 pm 12:15 Sunny 73 22.5 30 -0.9 21 21 ESE 17 28 30.03 1017 10 16.0934 0 0
12:35 pm 12:35 Sunny 73 23 29 -1.8 19 19 E 18 30 30.02 1017 10 16.0934 0 0
12:55 pm 12:55 Sunny 74 23.5 28 -2.5 18 18 E 15 24 30.02 1017 10 16.0934 0 0
1:15 pm 13:15 Sunny 75 23.8 28 -2.4 17 17 SE 17 28 30.02 1016 10 16.0934 0 0
1:35 pm 13:35 Sunny 76 24.2 29 -1.8 18 18 ESE 15 24 30.01 1016 10 16.0934 0 0
1:55 pm 13:55 Sunny 76 24.5 28 -2.5 17 17 ESE 14 22 30.01 1016 10 16.0934 0 0
2:15 pm 14:15 Sunny 77 25 28 -2.1 17 17 ESE 14 22 30 1016 10 16.0934 0 0
2:35 pm 14:35 Sunny 78 25.3 30 -1.3 17 17 SE 15 24 29.99 1016 10 16.0934 0 0
2:55 pm 14:55 Sunny 77 25.2 30 -1.3 17 17 SE 14 22 29.98 1015 10 16.0934 0 0
3:15 pm 15:15 Sunny 77 25.2 29 -1.6 17 17 SE 14 22 29.98 1015 10 16.0934 0 0
3:35 pm 15:35 Sunny 78 25.4 29 -1.5 17 17 SE 16 26 29.97 1015 10 16.0934 0 0
3:55 pm 15:55 Sunny 78 25.6 29 -1.7 16 16 SE 12 19 29.97 1015 10 16.0934 0 0
4:15 pm 16:15 Sunny 78 25.7 30 -1.2 17 17 SSE 13 20 29.96 1015 10 16.0934 0 0
4:35 pm 16:35 Sunny 78 25.6 30 -1.2 17 17 SSE 13 20 29.96 1015 10 16.0934 0 0
4:55 pm 16:55 Sunny 78 25.5 30 -0.9 18 18 SE 14 22 29.95 1014 10 16.0934 0 0
5:15 pm 17:15 Sunny 78 25.8 31 -0.8 17 17 SSE 12 19 29.95 1014 10 16.0934 0 0
5:35 pm 17:35 Sunny 78 25.6 30 -1.2 17 17 S 13 20 29.95 1014 10 16.0934 0 0
5:55 pm 17:55 Sunny 78 25.5 29 -1.4 17 17 SSE 12 19 29.94 1014 10 16.0934 0 0
6:15 pm 18:15 Sunny 77 25.1 29 -1.6 17 17 SSE 12 19 29.95 1014 10 16.0934 0 0
6:35 pm 18:35 Sunny 77 24.8 29 -1.9 17 17 SSE 15 24 29.95 1014 10 16.0934 0 0
6:55 pm 18:55 Sunny 75 24.1 27 -2.9 16 16 SSE 15 24 29.95 1014 10 16.0934 0 0
7:15 pm 19:15 Sunny 74 23.2 27 -2.6 18 18 SSE 9 15 29.96 1015 10 16.0934 0 0
7:35 pm 19:35 Sunny 71 21.9 31 -0.3 23 23 S 9 15 29.98 1015 10 16.0934 0 0
7:55 pm 19:55 Sunny 68 20.1 33 0.7 27 27 S 9 15 30 1016 10 16.0934 0 0
8:15 pm 20:15 Clear 66 18.7 35 1.4 32 32 SSE 8 13 30.01 1016 10 16.0934 0 0
8:35 pm 20:35 Clear 62 16.4 35 1.5 37 37 SSE 10 17 30.03 1017 10 16.0934 0 0
8:55 pm 20:55 Clear 60 15.3 36 2.2 41 41 SE 9 15 30.04 1017 10 16.0934 0 0
9:15 pm 21:15 Clear 59 14.8 37 2.8 45 45 SE 9 15 30.04 1017 10 16.0934 0 0
9:35 pm 21:35 Clear 55 13 37 2.8 50 50 SE 9 15 30.06 1018 10 16.0934 0 0
9:55 pm 21:55 Clear 58 14.2 39 3.7 49 49 SE 10 17 30.05 1017 10 16.0934 0 0
10:15 pm 22:15 Clear 58 14.4 39 4.1 50 50 SE 10 17 30.04 1017 10 16.0934 0 0
10:35 pm 22:35 Clear 56 13.6 39 4.1 53 53 SSE 9 15 30.04 1017 10 16.0934 0 0
10:55 pm 22:55 Clear 55 12.5 39 4 56 56 SSE 9 15 30.05 1018 10 16.0934 0 0
11:15 pm 23:15 Clear 55 12.7 39 4.1 56 56 SSE 9 15 30.05 1018 10 16.0934 0 0
11:35 pm 23:35 Clear 56 13.5 40 4.7 56 56 SSE 8 13 30.04 1017 10 16.0934 0 0
11:55 pm 23:55 Clear 55 12.7 41 4.9 59 59 SSE 8 13 30.04 1017 10 16.0934 0 0

Powered by AerisWeather